Fosston, MN

2:45 AM CDT on May 29, 2017 (GMT -0500)
Fosston Municipal

Weather History for KFSE - October, 2013

Change the Weather History Date:

Tuesday, October 15, 2013

  Actual Average Record
Temperature  
Mean Temperature 40 °F -  
Max Temperature 44 °F 53 °F 79 °F (1963)
Min Temperature 33 °F 31 °F 14 °F (1992)
Degree Days  
Heating Degree Days 26    
Moisture  
Dew Point 39 °F    
Average Humidity 93    
Maximum Humidity 100    
Minimum Humidity 87    
Precipitation  
Precipitation 0.12 in - - ()
Sea Level Pressure  
Sea Level Pressure 30.00 in    
Wind  
Wind Speed 13 mph (NNE)    
Max Wind Speed 18 mph    
Max Gust Speed 26 mph    
Visibility 10 miles    
Events Rain    
Averages and records for this station are not official NWS values.
T = Trace of Precipitation, MM = Missing Value Source: NWS Daily Summary

Daily Weather History Graph

Daily Weather History Graph

Search for Another Location

Airport or City:

Trip Planner

Search our weather history database for the weather conditions in past years. The results will help you decide how hot, cold, wet, or windy it might be!

Date:

Astronomy

Oct. 15, 2013 Rise Set
Actual Time 7:42 AM CDT 6:34 PM CDT
Civil Twilight 7:11 AM CDT 7:05 PM CDT
Nautical Twilight 6:35 AM CDT 7:41 PM CDT
Astronomical Twilight 5:59 AM CDT 8:16 PM CDT
Moon 4:51 PM CDT (10/15) 3:52 AM CDT (10/15)
Length of Visible Light 11h 54m
Length of Day
10h 52m
Waxing Gibbous, 88% of the Moon is Illuminated
Oct 15
Waxing Gibbous
Oct 18
Full
Oct 26
Last Quarter
Nov 3
New
Nov 9
First Quarter

Hourly Weather History & Observations

Time (CDT) Temp. Windchill Dew Point Humidity Pressure Visibility Wind Dir Wind Speed Gust Speed Precip Events Conditions
12:15 AM 42.8 °F 36.2 °F 39.2 °F 87% 30.11 in 10.0 mi ENE 12.7 mph 18.4 mph N/A Rain Rain
12:35 AM 41.0 °F 34.7 °F 39.2 °F 93% 30.11 in 10.0 mi ENE 10.4 mph 19.6 mph N/A   Light Drizzle
12:55 AM 41.0 °F 33.9 °F 39.2 °F 93% 30.08 in 10.0 mi NE 12.7 mph 20.7 mph N/A Rain Rain
1:14 AM 41.0 °F 33.9 °F 39.2 °F 93% 30.07 in 10.0 mi NE 12.7 mph 18.4 mph 0.01 in Rain Light Rain
1:35 AM 41.0 °F 34.3 °F 39.2 °F 93% 30.08 in 10.0 mi ENE 11.5 mph - 0.01 in Rain Light Rain
1:55 AM 41.0 °F 33.1 °F 39.2 °F 93% 30.06 in 10.0 mi NE 15.0 mph 20.7 mph 0.01 in Rain Light Rain
2:15 AM 41.0 °F 35.2 °F 39.2 °F 93% 30.06 in 10.0 mi NE 9.2 mph 17.3 mph 0.01 in Rain Light Rain
2:35 AM 41.0 °F 33.1 °F 39.2 °F 93% 30.03 in 10.0 mi NE 15.0 mph 21.9 mph 0.01 in Rain Light Rain
2:55 AM 41.0 °F 33.5 °F 39.2 °F 93% 30.03 in 10.0 mi NE 13.8 mph 20.7 mph 0.02 in Rain Rain
3:15 AM 41.0 °F 34.3 °F 39.2 °F 93% 30.05 in 10.0 mi NE 11.5 mph 16.1 mph N/A   Light Drizzle
3:35 AM 41.0 °F 34.7 °F 39.2 °F 93% 30.04 in 10.0 mi NE 10.4 mph 18.4 mph N/A   Light Drizzle
3:55 AM 41.0 °F 33.5 °F 39.2 °F 93% 30.02 in 10.0 mi NE 13.8 mph 25.3 mph N/A   Light Drizzle
4:15 AM 41.0 °F 34.3 °F 39.2 °F 93% 30.01 in 10.0 mi NE 11.5 mph 18.4 mph N/A   Light Drizzle
4:35 AM 41.0 °F 34.7 °F 39.2 °F 93% 30.01 in 7.0 mi NE 10.4 mph 21.9 mph N/A   Light Drizzle
4:55 AM 41.0 °F 33.1 °F 39.2 °F 93% 30.00 in 10.0 mi NE 15.0 mph 21.9 mph N/A   Light Drizzle
5:15 AM 41.0 °F 33.1 °F 39.2 °F 93% 29.98 in 10.0 mi NE 15.0 mph 21.9 mph N/A   Scattered Clouds
5:35 AM 41.0 °F 32.5 °F 39.2 °F 93% 29.99 in 10.0 mi NE 17.3 mph 24.2 mph N/A   Mostly Cloudy
5:55 AM 41.0 °F 32.8 °F 39.2 °F 93% 29.99 in 10.0 mi NE 16.1 mph 24.2 mph N/A   Overcast
6:15 AM 42.8 °F 35.4 °F 41.0 °F 93% 29.98 in 10.0 mi NE 15.0 mph 25.3 mph N/A   Overcast
6:35 AM 42.8 °F 34.8 °F 41.0 °F 93% 29.98 in 10.0 mi NNE 17.3 mph 25.3 mph N/A   Overcast
6:55 AM 42.8 °F 36.2 °F 41.0 °F 93% 29.98 in 10.0 mi NE 12.7 mph 26.5 mph N/A   Overcast
7:15 AM 41.0 °F 32.8 °F 39.2 °F 93% 29.97 in 10.0 mi NE 16.1 mph 23.0 mph N/A   Drizzle
7:35 AM 41.0 °F 33.1 °F 39.2 °F 93% 29.97 in 10.0 mi NE 15.0 mph 21.9 mph N/A   Light Drizzle
7:55 AM 41.0 °F 33.1 °F 39.2 °F 93% 29.97 in 10.0 mi NE 15.0 mph 23.0 mph N/A   Light Drizzle
8:15 AM 41.0 °F 33.9 °F 39.2 °F 93% 29.97 in 10.0 mi NE 12.7 mph 19.6 mph N/A   Light Drizzle
8:35 AM 41.0 °F 34.7 °F 39.2 °F 93% 29.97 in 10.0 mi NNE 10.4 mph - N/A   Light Drizzle
8:55 AM 39.2 °F 30.8 °F 39.2 °F 100% 29.98 in 10.0 mi NNE 15.0 mph 23.0 mph N/A   Drizzle
9:15 AM 39.2 °F 31.2 °F 37.4 °F 93% 29.98 in 10.0 mi NNE 13.8 mph 23.0 mph 0.01 in   Drizzle
9:35 AM 39.2 °F 30.5 °F 37.4 °F 93% 29.98 in 10.0 mi NNE 16.1 mph 23.0 mph 0.01 in   Light Drizzle
9:55 AM 39.2 °F 30.2 °F 39.2 °F 100% 29.98 in 10.0 mi NNE 17.3 mph 23.0 mph 0.01 in Rain Rain
10:15 AM 39.2 °F 31.2 °F 39.2 °F 100% 29.98 in 10.0 mi NNE 13.8 mph 24.2 mph N/A Rain Rain
10:35 AM 39.2 °F 30.5 °F 39.2 °F 100% 29.98 in 10.0 mi NNE 16.1 mph 24.2 mph N/A   Light Drizzle
10:55 AM 39.2 °F 29.8 °F 39.2 °F 100% 29.98 in 10.0 mi North 18.4 mph 23.0 mph N/A   Drizzle
11:15 AM 39.2 °F 30.5 °F 39.2 °F 100% 29.98 in 10.0 mi North 16.1 mph 21.9 mph N/A Rain Light Rain
11:35 AM 39.2 °F 30.2 °F 39.2 °F 100% 29.98 in 7.0 mi North 17.3 mph 23.0 mph 0.01 in Rain Rain
11:55 AM 39.2 °F 30.5 °F 39.2 °F 100% 29.98 in 10.0 mi North 16.1 mph 21.9 mph 0.01 in   Drizzle
12:15 PM 39.2 °F 30.5 °F 39.2 °F 100% 29.98 in 10.0 mi NNE 16.1 mph 23.0 mph N/A   Drizzle
12:35 PM 39.2 °F 30.8 °F 39.2 °F 100% 29.98 in 10.0 mi North 15.0 mph 19.6 mph 0.01 in Rain Light Rain
12:55 PM 39.2 °F 31.2 °F 39.2 °F 100% 29.98 in 10.0 mi North 13.8 mph 20.7 mph 0.02 in Rain Light Rain
1:15 PM 39.2 °F 30.2 °F 39.2 °F 100% 29.98 in 10.0 mi North 17.3 mph 23.0 mph 0.02 in Rain Rain
1:35 PM 39.2 °F 30.8 °F 39.2 °F 100% 29.97 in 10.0 mi North 15.0 mph - 0.05 in Rain Light Rain
1:55 PM 41.0 °F 33.1 °F 39.2 °F 93% 29.97 in 10.0 mi NNE 15.0 mph 19.6 mph 0.05 in Rain Light Rain
2:15 PM 42.8 °F 35.8 °F 41.0 °F 93% 29.97 in 10.0 mi NNE 13.8 mph 19.6 mph N/A   Overcast
2:35 PM 42.8 °F 35.4 °F 42.8 °F 100% 29.97 in 10.0 mi North 15.0 mph 19.6 mph N/A   Overcast
2:55 PM 42.8 °F 35.1 °F 42.8 °F 100% 29.96 in 10.0 mi NNE 16.1 mph 21.9 mph N/A   Overcast
3:15 PM 44.6 °F 37.2 °F 42.8 °F 93% 29.96 in 10.0 mi North 17.3 mph - N/A   Overcast
3:35 PM 44.6 °F 37.4 °F 42.8 °F 93% 29.96 in 10.0 mi North 16.1 mph - N/A   Overcast
3:55 PM 44.6 °F 38.4 °F 42.8 °F 93% 29.96 in 10.0 mi North 12.7 mph 18.4 mph N/A   Overcast
4:15 PM 44.6 °F 37.4 °F 42.8 °F 93% 29.96 in 10.0 mi North 16.1 mph 20.7 mph N/A   Overcast
4:35 PM 44.6 °F 38.1 °F 42.8 °F 93% 29.97 in 10.0 mi North 13.8 mph - N/A   Overcast
4:55 PM 42.8 °F 35.4 °F 42.8 °F 100% 29.97 in 10.0 mi North 15.0 mph - N/A   Overcast
5:15 PM 42.8 °F 35.1 °F 41.0 °F 93% 29.97 in 10.0 mi North 16.1 mph - N/A   Overcast
5:35 PM 42.8 °F 36.6 °F 41.0 °F 93% 29.98 in 10.0 mi North 11.5 mph - N/A   Overcast
5:55 PM 42.8 °F 37.0 °F 41.0 °F 93% 29.97 in 10.0 mi North 10.4 mph - N/A   Overcast
6:15 PM 42.8 °F 38.0 °F 41.0 °F 93% 29.97 in 10.0 mi North 8.1 mph - N/A   Overcast
6:35 PM 42.8 °F 38.0 °F 39.2 °F 87% 29.98 in 10.0 mi North 8.1 mph - N/A   Overcast
6:52 PM 42.8 °F 38.0 °F 39.2 °F 87% 29.98 in 10.0 mi North 8.1 mph - N/A   Overcast
7:15 PM 42.8 °F 38.6 °F 39.2 °F 87% 29.99 in 10.0 mi North 6.9 mph - N/A   Overcast
7:34 PM 42.8 °F 38.6 °F 39.2 °F 87% 29.99 in 10.0 mi North 6.9 mph - N/A   Overcast
7:55 PM 42.8 °F 39.3 °F 39.2 °F 87% 30.00 in 10.0 mi North 5.8 mph - N/A   Overcast
8:15 PM 42.8 °F 39.3 °F 39.2 °F 87% 30.00 in 10.0 mi NNW 5.8 mph - N/A   Overcast
8:35 PM 41.0 °F 35.2 °F 37.4 °F 87% 30.00 in 10.0 mi NW 9.2 mph - N/A   Overcast
8:55 PM 39.2 °F 33.0 °F 37.4 °F 93% 30.00 in 10.0 mi NNW 9.2 mph - N/A   Overcast
9:15 PM 39.2 °F 33.0 °F 37.4 °F 93% 30.00 in 10.0 mi NNW 9.2 mph - N/A   Overcast
9:34 PM 39.2 °F 31.6 °F 35.6 °F 87% 30.01 in 10.0 mi NNW 12.7 mph 17.3 mph N/A   Overcast
9:55 PM 39.2 °F 33.0 °F 35.6 °F 87% 30.01 in 10.0 mi NNW 9.2 mph - N/A   Overcast
10:15 PM 39.2 °F 32.5 °F 35.6 °F 87% 30.01 in 10.0 mi North 10.4 mph - N/A   Overcast
10:34 PM 39.2 °F 33.0 °F 35.6 °F 87% 30.00 in 10.0 mi NNW 9.2 mph - N/A   Overcast
10:55 PM 37.4 °F 31.4 °F 33.8 °F 87% 30.01 in 10.0 mi NNW 8.1 mph - N/A   Overcast
11:15 PM 37.4 °F 31.4 °F 33.8 °F 87% 30.01 in 10.0 mi NNW 8.1 mph - N/A   Overcast
11:35 PM 35.6 °F 31.7 °F 32.0 °F 87% 30.00 in 10.0 mi NW 4.6 mph - N/A   Scattered Clouds
11:55 PM 33.8 °F - 30.2 °F 87% 30.00 in 10.0 mi Calm Calm - N/A   Clear